Total_Precipitation_Accumulation
0.03 0.03 0.06 0.05 0.04 0.04 0.06 0.08 0.09 0.09 0.08 0.07 0.04 0.03 0.02 0.02 0.02 0.02 0.02 0.03 0.04 0.04 0.05 0.06 0.07 0.07 0.07 0.07 0.07 0.05 0.04 0.05 0.08 0.10 0.12 0.14 0.19 0.27 0.35 0.35 0.53 0.44 0.23
0.01 0.03 0.07 0.07 0.06 0.06 0.07 0.08 0.10 0.10 0.10 0.09 0.07 0.05 0.03 0.02 0.02 0.03 0.03 0.04 0.03 0.04 0.04 0.05 0.04 0.04 0.04 0.04 0.04 0.03 0.04 0.07 0.11 0.18 0.23 0.24 0.25 0.33 0.36 0.33 0.57 0.36 0.18
0.01 0.02 0.05 0.08 0.06 0.05 0.06 0.08 0.10 0.10 0.11 0.10 0.08 0.07 0.05 0.03 0.03 0.03 0.04 0.03 0.04 0.04 0.04 0.04 0.03 0.03 0.03 0.03 0.03 0.04 0.05 0.09 0.17 0.31 0.52 0.50 0.24 0.30 0.33 0.30 0.31 0.18 0.14
0.01 0.02 0.03 0.07 0.08 0.06 0.05 0.07 0.09 0.10 0.11 0.09 0.08 0.07 0.06 0.05 0.04 0.04 0.04 0.04 0.05 0.05 0.04 0.03 0.03 0.03 0.02 0.02 0.03 0.04 0.07 0.11 0.21 0.45 0.79 0.51 0.22 0.16 0.21 0.20 0.16 0.11 0.11
0.03 0.02 0.03 0.05 0.06 0.07 0.06 0.07 0.08 0.08 0.09 0.08 0.08 0.06 0.06 0.06 0.06 0.05 0.04 0.04 0.06 0.06 0.04 0.03 0.02 0.02 0.02 0.02 0.03 0.05 0.08 0.13 0.25 0.49 0.53 0.44 0.44 0.20 0.14 0.15 0.15 0.11 0.09
0.04 0.03 0.04 0.06 0.06 0.06 0.06 0.06 0.06 0.07 0.07 0.07 0.06 0.06 0.06 0.06 0.06 0.06 0.06 0.05 0.05 0.06 0.05 0.04 0.03 0.02 0.02 0.02 0.03 0.05 0.09 0.14 0.30 0.35 0.32 0.37 0.43 0.26 0.16 0.21 0.21 0.15 0.10
0.04 0.03 0.04 0.07 0.08 0.08 0.07 0.07 0.07 0.07 0.07 0.07 0.07 0.07 0.06 0.07 0.08 0.07 0.07 0.05 0.06 0.07 0.06 0.04 0.03 0.03 0.03 0.03 0.04 0.06 0.11 0.19 0.29 0.28 0.32 0.50 0.49 0.29 0.27 0.43 0.48 0.34 0.20
0.07 0.05 0.06 0.09 0.10 0.10 0.10 0.10 0.10 0.09 0.09 0.08 0.07 0.07 0.07 0.08 0.09 0.08 0.07 0.07 0.09 0.10 0.09 0.06 0.04 0.04 0.04 0.04 0.05 0.07 0.12 0.16 0.19 0.25 0.32 0.47 0.41 0.35 0.48 0.70 0.72 0.57 0.41
0.16 0.16 0.09 0.07 0.08 0.10 0.14 0.16 0.14 0.12 0.11 0.10 0.08 0.08 0.08 0.09 0.11 0.10 0.11 0.11 0.12 0.14 0.13 0.11 0.07 0.06 0.05 0.05 0.06 0.07 0.12 0.17 0.23 0.31 0.39 0.39 0.28 0.31 0.54 0.73 0.66 0.59 0.51
0.27 0.25 0.16 0.12 0.14 0.12 0.13 0.16 0.18 0.16 0.14 0.12 0.12 0.11 0.11 0.13 0.16 0.17 0.16 0.18 0.19 0.21 0.21 0.20 0.16 0.14 0.14 0.14 0.14 0.13 0.16 0.16 0.18 0.24 0.46 0.53 0.37 0.46 0.72 0.85 0.73 0.65 0.58
0.32 0.26 0.17 0.15 0.16 0.18 0.15 0.14 0.17 0.18 0.18 0.16 0.18 0.18 0.21 0.30 0.44 0.49 0.49 0.52 0.50 0.47 0.45 0.40 0.39 0.38 0.32 0.23 0.26 0.35 0.26 0.12 0.22 0.30 0.51 0.58 0.50 0.66 0.96 1.05 0.98 0.85 0.74
0.33 0.25 0.21 0.18 0.20 0.19 0.18 0.25 0.28 0.29 0.32 0.30 0.42 0.48 0.56 0.69 0.71 0.59 0.78 0.88 0.89 0.95 0.87 0.81 0.96 0.82 0.60 0.51 0.85 1.16 0.47 0.25 0.24 0.31 0.44 0.53 0.75 1.03 1.28 1.23 1.12 1.02 0.90
0.32 0.31 0.32 0.25 0.26 0.29 0.37 0.36 0.39 0.48 0.64 0.61 0.64 0.78 0.96 0.92 0.76 0.68 0.82 1.08 1.25 1.39 1.34 1.44 1.53 1.14 1.08 1.19 1.33 1.26 0.77 0.63 0.52 0.49 0.60 0.84 1.17 1.45 1.59 1.40 1.26 1.19 1.08
0.55 0.52 0.52 0.45 0.50 0.53 0.55 0.56 0.54 0.62 0.80 0.93 1.10 1.16 1.32 1.34 1.18 1.03 1.06 1.26 1.44 1.60 1.91 1.95 1.83 1.67 1.63 1.52 1.43 1.24 1.08 1.06 0.87 0.91 1.11 1.19 1.35 1.55 1.77 1.67 1.47 1.37 1.31
0.90 0.98 0.99 0.83 0.88 0.97 1.03 1.04 0.91 0.99 1.10 1.20 1.42 1.55 1.66 1.81 1.73 1.63 1.53 1.49 1.40 1.58 1.91 2.12 2.04 2.03 1.97 1.86 1.66 1.48 1.30 1.27 1.21 1.27 1.40 1.60 1.62 1.57 1.65 1.79 1.70 1.53 1.44
1.23 1.38 1.44 1.41 1.50 1.53 1.50 1.53 1.51 1.32 1.32 1.34 1.45 1.52 1.72 1.93 2.14 2.20 2.08 1.90 1.61 1.59 1.71 2.05 2.16 2.29 2.18 2.04 1.50 1.42 1.42 1.43 1.45 1.42 1.46 1.95 1.99 1.64 1.51 1.57 1.70 1.71 1.62
1.79 1.81 1.83 1.95 2.09 2.09 1.98 1.82 1.65 1.54 1.51 1.64 1.68 1.66 1.85 2.09 2.28 2.28 2.04 1.71 1.52 1.61 1.71 1.67 1.72 2.02 1.81 1.67 1.48 1.58 1.63 1.53 1.47 1.44 1.45 1.76 1.85 1.55 1.30 1.25 1.39 1.52 1.64
2.24 2.20 2.20 2.18 2.35 2.41 2.34 2.24 1.99 1.79 1.85 1.78 1.67 1.65 1.73 1.93 1.96 1.97 1.62 1.27 1.35 1.56 1.64 1.60 1.56 1.66 1.65 1.68 1.66 1.63 1.61 1.50 1.27 1.19 1.09 1.07 1.18 1.05 1.12 1.27 1.24 1.22 1.44
2.60 2.73 2.81 2.88 2.77 2.72 2.63 2.53 2.33 2.12 1.89 1.65 1.63 1.59 1.48 1.40 1.42 1.51 1.23 1.11 1.25 1.40 1.43 1.40 1.54 1.63 1.51 1.58 1.60 1.49 1.23 1.10 0.96 0.84 0.79 0.72 0.75 0.79 0.78 0.99 1.07 1.12 1.39
2.69 3.05 3.27 3.27 3.03 2.72 2.42 2.10 2.02 1.88 1.76 1.63 1.54 1.42 1.23 1.11 1.12 1.29 1.18 1.08 1.21 1.29 1.25 1.39 1.50 1.58 1.36 1.34 1.28 1.04 0.86 0.65 0.61 0.55 0.47 0.50 0.53 0.52 0.59 0.74 1.00 0.91 1.23
2.66 3.08 3.21 3.16 2.65 2.16 1.92 1.69 1.57 1.43 1.34 1.36 1.33 1.24 1.18 1.08 1.06 1.20 1.10 1.02 1.02 1.03 1.00 1.15 1.27 1.28 1.06 1.26 1.41 0.94 0.65 0.51 0.44 0.34 0.31 0.35 0.37 0.44 0.58 0.77 0.95 1.00 1.14
2.37 2.89 2.87 2.41 1.90 1.57 1.40 1.26 1.14 1.09 1.01 0.96 0.89 0.86 0.82 0.83 0.88 0.95 0.94 0.85 0.81 0.83 0.82 0.90 1.04 1.03 0.92 1.19 1.33 1.20 0.85 0.63 0.50 0.35 0.34 0.35 0.38 0.49 0.56 0.65 0.89 1.08 1.13
2.05 2.08 1.75 1.45 1.17 0.94 0.82 0.77 0.77 0.74 0.68 0.60 0.53 0.52 0.55 0.59 0.60 0.59 0.61 0.65 0.70 0.70 0.72 0.78 0.94 1.05 0.93 0.96 1.19 1.31 1.05 0.74 0.64 0.50 0.49 0.53 0.57 0.64 0.70 0.84 0.96 1.07 1.16
1.40 1.26 1.09 0.96 0.81 0.71 0.70 0.64 0.67 0.59 0.53 0.47 0.40 0.40 0.42 0.44 0.43 0.41 0.44 0.54 0.61 0.67 0.71 0.66 0.71 0.87 0.93 0.85 0.95 1.06 1.08 1.08 1.02 0.73 0.55 0.53 0.60 0.63 0.66 0.71 0.81 0.96 1.03
0.80 0.78 0.68 0.73 0.78 0.70 0.66 0.61 0.57 0.48 0.40 0.35 0.36 0.40 0.44 0.44 0.42 0.39 0.38 0.40 0.50 0.58 0.64 0.66 0.68 0.74 0.81 0.79 0.81 0.86 0.93 1.03 1.03 0.94 0.69 0.54 0.55 0.54 0.61 0.67 0.74 0.81 0.89
0.38 0.42 0.43 0.51 0.59 0.54 0.52 0.50 0.48 0.45 0.42 0.37 0.35 0.35 0.35 0.38 0.39 0.39 0.38 0.41 0.43 0.44 0.47 0.55 0.61 0.66 0.72 0.74 0.74 0.81 0.89 0.88 0.88 0.99 0.86 0.70 0.64 0.58 0.67 0.74 0.85 0.94 0.96